User: anonymous   Login
Location: Brainerd
(46.3580°N, 94.2010°W)
Time: 21:53:07
(UTC-05:00)
Language:

CZ-4C R/B - Orbit

View from above orbital plane
View from above orbital plane
View from above satellite
View from above satellite

Ground track
Ground track

The orbit data is extracted from the following two-line orbital elements,

1 32290U 07055B   16209.50486865  .00002501  00000-0  76030-4 0  9991
2 32290  97.5265 303.8222 0069706 207.2252 152.5329 15.32703247482050
Epoch (UTC): 27 July 2016 12:07:00
Eccentricity: 0.0069706
inclination: 97.5265°
perigee height: 420 km
apogee height: 515 km
right ascension of ascending node: 303.8222°
argument of perigee: 207.2252°
revolutions per day: 15.32703247
mean anomaly at epoch: 152.5329°
orbit number at epoch: 48205

The dashed part of the orbit path shows where the satellite is in the earth's shadow,  

DLR